Regional Weather Roundup
Issued by NWS Upton, NY

Current Version | Previous Version | Text Only | Print | Product List | Glossary On
Versions: 1 2 3 4 5 6 7 8 9 10 11 12 13 14 15 16 17 18 19 20 21 22 23 24 25 26 27 28 29 30 31 32 33 34 35 36 37 38 39 40 41 42 43 44 45 46 47 48 49 50
000
ASUS41 KOKX 100004
RWROKX

REGIONAL WEATHER ROUNDUP
NATIONAL WEATHER SERVICE NEW YORK NY
700 PM EST TUE FEB 09 2016

NOTE: "FAIR" INDICATES FEW OR NO CLOUDS BELOW 12,000 FEET WITH NO
SIGNIFICANT WEATHER AND/OR OBSTRUCTIONS TO VISIBILITY.

NYZ071-072-176-178-NJZ106-104-100100-
NEW YORK CITY METRO AREA


CITY           SKY/WX    TMP DP  RH WIND       PRES   REMARKS
CENTRAL PARK   CLOUDY    34  24  67 NE3       29.62R
LAGUARDIA APRT CLOUDY    34  24  67 NE6       29.61R WCI  29
KENNEDY INTL   CLOUDY    34  22  61 E3        29.62R
NEWARK/LIBERTY CLOUDY    35  26  69 W6        29.61R WCI  30
BRNX BOT. GARD   N/A     32  25  74 N3        29.63R
TETERBORO      CLOUDY    34  23  64 W3        29.60R
$$

NYZ177-179-078>081-100100-
LONG ISLAND NEW YORK

CITY           SKY/WX    TMP DP  RH WIND       PRES   REMARKS
FARMINGDALE    CLOUDY    32  22  66 NE3       29.62R
ISLIP          CLOUDY    30  22  72 CALM      29.61R
SHIRLEY        CLOUDY    28  23  81 CALM      29.63R
RIVERHEAD        N/A     28  19  69 CALM      29.60S
WESTHAMPTON    CLOUDY    25  20  81 W3        29.64R
EAST HAMPTON   FAIR      26  24  93 CALM      29.61R
MONTAUK POINT    N/A     32  24  72 N5        29.62R WCI  27
$$

NYZ052-065-067-100100-
HUDSON VALLEY

CITY           SKY/WX    TMP DP  RH WIND       PRES   REMARKS
WHITE PLAINS   CLOUDY    29  22  75 CALM      29.59R
NEWBURGH       CLOUDY    30  25  80 CALM      29.59R
MONTGOMERY     CLOUDY    31  24  75 CALM      29.58R
POUGHKEEPSIE   CLOUDY    30  23  75 CALM      29.59R
ALBANY         LGT SNOW  29  23  78 CALM      29.60R
$$

NJZ001-105-106-008-010-013-015-019>022-104-100100-
NEW JERSEY

CITY           SKY/WX    TMP DP  RH WIND       PRES   REMARKS
NEWARK/LIBERTY CLOUDY    35  26  69 W6        29.61R WCI  30
TETERBORO      CLOUDY    34  23  64 W3        29.60R
CALDWELL       CLOUDY    33  24  69 W3        29.61R
MORRISTOWN     CLOUDY    32  28  86 W3        29.62R
SOMERVILLE     LGT SNOW  32  28  85 CALM      29.60R FOG
SUSSEX         MOCLDY    30  24  78 CALM      29.58R
ANDOVER          N/A     31  25  78 CALM      29.58R
TRENTON        LGT SNOW  32  29  88 E3        29.61R FOG
MILLVILLE      CLOUDY    36  33  89 E3        29.60R
ATLANTIC CITY  CLOUDY    35  29  78 NE6       29.60R WCI  30
WRIGHTSTOWN    LGT SNOW  32  32 100 NE3       29.59R FOG
TOMS RIVER     CLOUDY    32  27  80 CALM      29.62R
BELMAR         CLOUDY    32  23  69 CALM      29.61R
$$

PAZ047>061-062-071-100100-
EASTERN PENNSYLVANIA

CITY           SKY/WX    TMP DP  RH WIND       PRES   REMARKS
PHILADELPHIA   CLOUDY    34  31  88 E5        29.62R FOG     WCI  30
ALLENTOWN      LGT SNOW  32  29  88 CALM      29.60R FOG
SCRANTON       LGT SNOW  32  30  92 SW3       29.54S FOG
$$

CTZ002-004>006-009-010-012-RIZ004-006-007-MAZ004-011-015-100100-
SOUTHERN NEW ENGLAND
 IN CT

CITY           SKY/WX    TMP DP  RH WIND       PRES   REMARKS
BRADLEY INTL   CLOUDY    24  17  74 NE5       29.59S WCI  18
HARTFORD       CLEAR     26  19  74 S3        29.62S
DANBURY        PTCLDY    29  20  69 S5        29.60R WCI  24
WTRBRY/OXFORD  NOT AVBL
BRIDGEPORT     CLOUDY    30  24  78 CALM      29.62R
MERIDEN        CLOUDY    24  19  81 CALM      29.62R
NEW HAVEN      PTCLDY    27  19  72 CALM      29.62R
CHESTER        FAIR      28  21  74 CALM      29.60S
GROTON         CLOUDY    27  23  85 N3        29.62R
WILLIMANTIC    CLOUDY    27  20  75 N5        29.61R WCI  22

 IN RI

CITY           SKY/WX    TMP DP  RH WIND       PRES   REMARKS
PROVIDENCE     MOCLDY    29  19  66 N7        29.61F WCI  22
BLOCK ISLAND   PTCLDY    28  23  80 N5        29.60R WCI  23
WESTERLY       PTCLDY    26  20  77 CALM      29.62R

 IN MA

CITY           SKY/WX    TMP DP  RH WIND       PRES   REMARKS
BOSTON         CLOUDY    29  18  63 NW7       29.62S WCI  22
WORCESTER      CLOUDY    23  16  74 CALM      29.56S
WESTFIELD      CLOUDY    23  18  81 CALM      29.59S
PROVINCETOWN   CLOUDY    30  24  78 N8        29.61S WCI  22
NANTUCKET      PTCLDY    33  28  81 N10       29.57F WCI  25
$$

ANZ330-335-338-340-345-350-353-355-100100-
COASTAL MARINE OBSERVATIONS


STATION/POSITION TIME  SKY/WX   TEMP    WIND        PRES    VSBY  WAVE
                                AIR SEA DIR/SP/G                  HT/PER
                 (UTC)          (F)     (DEG/KT/KT) (MB)    (MI)  (FT/S)
NY HARB ENTRANCE 2250            34 43   30/  4/  6 1001.9          5/14
4S FIRE IS       NOT AVBL
20S FIRE ISLAND  2250            34 44   20/  4/  6 1002.2          5/ 8
GREAT SOUTH BAY  NOT AVBL
23SW MTP         2350            34 45   30/  4/  8 1002.4          6/13
HUDSON CANYON    2250            38 49              1000.9          7/11
KINGS POINT      2300            32 39   CALM  /  3 1002.0
EXECUTION ROCKS  NOT AVBL
CENTRAL LI SOUND 2300            31     220/  4/  4   N/A           0
EASTERN LI SOUND 2300            33 42   20/  8/ 10   N/A
ROBBINS REEF     2300            34     280/  4/  5 1001.6
$$


>>>>>>>>>>>>>>>>>>>>>>>>>>>> KEY <<<<<<<<<<<<<<<<<<<<<<<<<<<
>                                                          <
>     SKY/WX - SKY CONDITION/PRESENT WEATHER               <
>     TMP    - TEMPERATURE IN FAHRENHEIT                   <
>     DP     - DEWPOINT IN FAHRENHEIT                      <
>     RH     - RELATIVE HUMIDITY IN PERCENT                <
>     WIND   - DIRECTION AND SPEED IN MPH                  <
>     PRES   - MEAN SEA LEVEL PRESSURE IN INCHES OF HG     <
>     WCI    - WIND CHILL INDEX                            <
>     VSB    - VISIBILITY IN MILES                         <
>     HX     - HEAT INDEX                                  <
>     TC     - TEMPERATURE IN CELSIUS                      <
>     VRB    - VARIABLE WIND DIRECTION                     <
>                                                          <
>>>>>>>>>>>>>>>>>>>>>>>>>>>> KEY <<<<<<<<<<<<<<<<<<<<<<<<<<<





USA.gov is the U.S. government's official web portal to all federal, state and local government web resources and services.